Regional Weather Roundup
Issued by NWS Jackson, KY

Home | Current Version | Previous Version | Graphics & Text | Print | Product List | Glossary On
Versions: 1 2 3 4 5 6 7 8 9 10 11 12 13 14 15 16 17 18 19 20 21 22 23 24 25 26 27 28 29 30 31 32 33 34 35 36 37 38 39 40 41 42 43 44 45 46 47 48 49 50
000
ASUS43 KJKL 140311
RWRJKL

EAST KENTUCKY HOURLY WEATHER ROUNDUP
NATIONAL WEATHER SERVICE JACKSON KY
1100 PM EDT SUN JUL 13 2014

NOTE: "FAIR" INDICATES FEW OR NO CLOUDS BELOW 12,000 FEET WITH
NO SIGNIFICANT WEATHER AND/OR OBSTRUCTIONS TO VISIBILITY.

* THESE REPORTS ARE NOT UNDER NWS QUALITY CONTROL AND MAY NOT
  REPORT WEATHER SUCH AS PRECIPITATION AND FOG.

KYZ079-080-083-085-087-088-110-112-115-119-120-140400
...EASTERN KENTUCKY...

CITY           SKY/WX    TMP DP  RH WIND       PRES   REMARKS
JACKSON        CLEAR     80  67  64 VRB3      30.01R
LONDON         CLEAR     81  67  62 S8        30.03R
SOMERSET*      CLEAR     81  66  61 S3        30.02R
MONTICELLO*    PTCLDY    81  71  71 SW6       30.03R
WILLIAMSBURG*  CLEAR     77  68  73 CALM      30.04
MIDDLESBORO*   PTCLDY    73  70  89 CALM      30.05S
HARLAN APT*    PTCLDY    72  70  94 MISG      30.06S
BLACK MTN*       N/A     66  64  94 SW7         N/A
PIKEVILLE APT* CLEAR     79  66  65 S3        30.02R
BIG SANDY*     PTCLDY    82  68  63 SW6       30.00R
MOREHEAD APT*  RAIN      72  68  88 NW9G16    30.02S
$$

KYZ035-036-041-042-044-050-067-078-099-140400
...CENTRAL KENTUCKY...

CITY           SKY/WX    TMP DP  RH WIND       PRES   REMARKS
MT STERLING*   MOCLDY    72  72 100 CALM      30.00S
FLEMING/MASON* DRIZZLE   72  70  94 S6        29.98F
DANVILLE*      CLEAR     79  68  69 SW3       30.00R
RICHMOND*      PTCLDY    82  66  57 SW6       29.98R
LEXINGTON      PTCLDY    77  70  79 SE3       29.98R
FRANKFORT      MOCLDY    75  71  87 CALM      29.96R
$$

KYZ091>093-OHZ055-061-077-WVZ005-015-034-035-042-140400
...SOUTHERN OHIO/WEST VIRGINIA...

CITY           SKY/WX    TMP DP  RH WIND       PRES   REMARKS
COVINGTON      TSTM      73  72  94 SW6       29.98R
COLUMBUS       PTCLDY    74  70  87 S6        29.93R
DAYTON         PTCLDY    72  69  90 SW6       29.96R
WILMINGTON     MOCLDY    70  68  93 SW6       29.96R
HUNTINGTON     CLOUDY    78  70  76 N8        29.97R
CHARLESTON     LGT RAIN  76  72  87 CALM      29.97R
PINEVILLE*     MOCLDY    72  70  95 MISG      30.10R
BECKLEY        PTCLDY    74  64  71 SW7       30.09R
BLUEFIELD      PTCLDY    75  63  66 SW9       30.12S
$$

VAZ002-007-008-TNZ017-027-036-066-071-140400
...SOUTHWEST VIRGINIA/EAST TENNESSEE...

CITY           SKY/WX    TMP DP  RH WIND       PRES   REMARKS
WISE*          PTCLDY    73  63  68 SW8       30.13R
JONESVILLE*      N/A     72  70  94 CALM      30.08S
ABINGDON*      PTCLDY    74  70  86 CALM      30.10S
BRISTOL        MOCLDY    74  68  81 CALM      30.07S
KNOXVILLE      MOCLDY    79  71  76 SW7       30.04R
OAK RIDGE      PTCLDY    77  73  87 CALM      30.05S
CROSSVILLE     PTCLDY    75  68  78 VRB5      30.11R
NASHVILLE      PTCLDY    84  71  65 SW5       30.01R
$$

...KEY TO REMARKS...
VSB - VISIBILITY IN MILES
WCI - WIND CHILL INDEX
HX  - HEAT INDEX

$$


USA.gov is the U.S. government's official web portal to all federal, state and local government web resources and services.